User: anonymous   Login
Location: Oshawa
(43.9000°N, 78.8670°W)
Time: 01:01:59
(UTC-04:00)
Language:

Iridium 98 - Orbit

View from above orbital plane
View from above orbital plane
View from above satellite
View from above satellite

Ground track
Ground track

The orbit data is extracted from the following two-line orbital elements,

1 27451U 02031B   15110.47650809  .00000559  00000-0  19248-3 0  9998
2 27451 086.3981 351.9241 0001969 084.7048 329.6835 14.34220291678259
Epoch (UTC): 20 April 2015 11:26:10
Eccentricity: 0.0001969
inclination: 86.3981°
perigee height: 776 km
apogee height: 779 km
right ascension of ascending node: 351.9241°
argument of perigee: 84.7048°
revolutions per day: 14.34220291
mean anomaly at epoch: 329.6835°
orbit number at epoch: 67825

The dashed part of the orbit path shows where the satellite is in the earth's shadow,  

DLR